Theta_e
296 297 297 297 297 298 298 298 298 298 298 298 298 299 299 300 301 301 301 301 301 301 301 301 300 299 299 299 299 299 299 299 299 298 298 298 298 298 298 298 299 299 299 298 297 297 296 296 296 296 296 296 295 295 295 294 294 294 294 294 294 295 295 295 295 296 296 296 296 296 296 296 296 296 295 295 295 294 293 292 292 291 291 291 291
294 294 294 295 295 296 296 297 297 297 297 297 297 298 298 298 299 299 300 300 300 300 301 301 301 300 299 299 298 298 298 298 298 298 298 297 297 297 297 297 298 298 299 299 298 298 298 298 297 297 296 296 296 295 295 295 294 294 293 293 294 294 294 295 295 295 295 295 295 295 295 295 295 295 295 295 295 295 293 292 292 291 291 291 291
293 292 292 292 292 293 293 294 295 296 296 297 297 297 297 297 297 298 298 298 299 299 300 300 301 301 300 299 299 298 298 297 297 297 297 297 297 296 296 296 297 297 297 298 298 298 298 299 299 298 297 296 296 296 296 296 295 294 294 293 293 293 294 294 294 295 295 294 294 295 295 295 295 295 295 294 294 294 294 292 292 292 291 291 291
292 292 291 291 290 290 291 291 291 292 293 295 295 296 296 296 296 296 296 297 297 297 298 298 299 300 300 300 299 298 298 297 297 297 296 296 296 297 296 296 296 296 296 296 297 297 297 298 299 298 297 297 298 297 297 296 295 295 295 294 293 293 293 293 294 294 294 294 294 294 295 295 295 294 294 294 294 294 294 293 292 292 291 291 290
291 291 291 291 290 290 289 289 289 289 290 291 292 292 293 294 294 295 295 296 296 297 297 297 297 298 298 299 299 299 298 297 297 297 296 296 296 295 296 296 296 296 296 295 295 295 296 296 297 297 296 296 297 298 297 296 295 295 295 295 293 293 293 293 293 293 294 294 293 294 294 294 294 294 294 293 293 293 293 293 292 291 291 291 290
289 289 289 289 289 289 289 289 288 288 288 288 289 289 290 291 291 291 292 293 294 295 296 296 296 296 296 297 297 298 298 298 297 296 296 296 296 295 295 295 296 296 296 296 295 295 295 295 296 296 296 296 296 297 296 296 295 294 295 295 294 292 292 292 292 293 293 293 293 293 293 294 294 294 294 293 293 293 293 292 292 291 290 290 290
288 288 288 288 288 288 288 288 288 287 287 287 287 288 288 288 289 289 290 290 291 292 293 294 295 295 295 295 295 295 296 297 297 297 296 296 295 295 295 295 295 295 295 295 295 295 295 295 295 295 295 296 296 296 295 295 295 294 294 294 293 292 291 291 292 292 292 293 293 293 293 293 293 293 294 293 293 292 292 292 291 291 290 290 290
288 287 287 287 287 287 287 287 287 287 287 287 287 287 287 287 287 288 288 288 289 289 290 291 292 292 293 293 293 293 293 294 295 295 296 296 295 295 294 294 295 295 295 294 294 294 295 295 296 295 295 295 295 295 295 295 294 294 294 293 292 291 291 291 291 291 292 292 292 292 292 292 293 293 293 292 292 292 292 292 291 291 290 290 289
288 287 287 287 287 287 287 287 287 287 287 287 287 286 286 286 286 287 287 287 287 288 288 288 289 289 290 291 291 291 291 292 292 292 293 294 295 295 294 294 293 294 294 294 294 294 294 294 295 296 296 295 295 295 294 294 294 294 294 293 292 291 291 290 290 290 291 291 291 291 291 291 292 292 292 293 293 293 292 292 291 291 290 289 289
287 287 287 287 287 287 286 286 286 286 286 286 286 286 286 286 286 286 286 286 286 287 287 287 287 287 288 288 289 289 289 290 290 290 290 291 292 293 294 293 293 293 293 293 293 294 295 295 295 295 295 295 296 295 294 293 293 294 293 292 291 291 291 290 290 290 290 290 291 291 291 291 292 292 293 293 293 293 292 292 291 291 290 289 288
287 287 287 287 287 286 286 286 286 286 286 286 286 286 286 286 286 286 286 286 286 286 286 286 286 286 286 287 287 287 288 288 288 288 288 289 289 290 292 293 293 292 292 292 292 293 293 294 295 294 294 295 295 295 295 294 293 293 293 292 291 291 291 290 290 290 289 289 290 290 290 291 292 292 292 293 292 292 292 292 291 290 290 290 290
287 287 287 287 287 287 286 286 286 286 286 286 286 286 286 286 286 286 286 286 286 286 286 286 286 286 286 286 286 286 286 287 287 286 286 286 287 288 289 290 291 292 292 292 291 291 291 292 293 294 294 294 294 294 294 295 294 293 292 292 291 291 291 290 290 290 289 289 289 290 290 290 291 291 292 292 292 292 292 292 291 290 290 290 290
288 287 287 287 287 287 286 286 286 286 286 286 286 286 286 286 286 286 286 286 286 286 286 286 286 286 286 286 286 286 286 286 286 286 286 285 286 286 286 288 289 290 291 292 292 291 291 290 291 292 293 294 293 293 293 294 294 294 293 292 291 291 291 290 290 289 289 289 289 290 290 290 290 291 292 292 292 292 292 291 291 290 290 290 289
288 288 287 287 287 287 286 286 286 287 286 286 286 286 286 286 286 285 285 286 286 286 286 286 286 286 286 286 286 286 286 286 286 286 285 285 285 285 285 286 286 287 289 291 291 292 291 290 290 291 291 292 292 292 292 292 292 292 293 293 292 292 291 290 290 289 289 288 288 289 289 289 290 290 291 291 292 292 292 292 292 291 290 289 288
287 287 287 287 286 286 286 286 286 286 286 286 286 286 286 286 286 285 285 285 285 286 286 286 286 286 286 286 286 286 286 286 286 286 286 285 285 285 285 285 285 286 287 288 289 291 291 291 291 291 290 290 291 291 291 290 291 291 291 292 292 292 291 291 291 290 289 288 288 288 288 288 289 289 290 290 291 291 291 291 291 291 289 288 287
286 285 285 285 285 285 286 286 286 286 286 286 286 286 286 286 286 285 285 285 285 285 285 285 286 286 286 286 286 286 286 286 286 286 286 286 285 285 285 285 285 285 286 286 287 288 289 291 292 292 291 289 289 290 290 289 289 289 290 290 291 291 291 291 291 291 290 290 289 288 288 288 288 288 288 289 289 290 290 289 288 288 287 286 286
285 285 284 285 285 285 285 285 285 286 286 286 286 286 286 286 286 285 285 285 285 285 285 285 285 285 286 286 286 286 286 286 286 286 286 286 286 285 285 284 285 285 285 285 285 286 287 288 290 292 292 291 290 289 289 289 288 288 289 289 289 289 291 291 291 290 290 289 288 288 287 287 287 287 287 288 288 288 289 288 288 287 286 286 286
284 284 284 284 284 284 284 284 284 284 285 285 286 285 285 285 285 285 284 285 285 285 285 285 285 286 285 285 286 286 286 286 286 286 286 286 286 286 285 285 284 284 285 285 285 285 286 286 288 289 291 293 292 289 288 288 288 288 288 288 288 288 290 290 289 289 289 288 288 287 286 286 286 286 286 287 287 287 288 288 288 287 286 286 286
283 282 283 283 283 283 283 282 282 282 283 283 284 284 284 284 284 283 283 284 284 284 285 285 285 285 286 286 286 285 286 286 286 286 286 286 286 286 286 285 285 284 284 285 285 285 285 285 286 287 289 291 292 291 289 288 287 288 288 287 287 288 289 288 287 287 288 288 287 286 285 285 285 285 285 286 286 286 287 287 287 286 286 286 286
281 281 281 282 282 281 281 281 281 280 280 281 281 281 282 282 282 282 282 283 283 283 284 284 284 285 285 285 285 285 285 286 286 286 286 286 286 285 285 285 285 285 284 284 284 285 285 285 285 286 287 289 291 292 290 288 287 287 287 287 287 288 288 287 287 287 287 287 287 287 286 285 285 284 285 285 285 285 286 286 286 285 285 285 285
280 279 280 280 280 280 280 279 279 278 278 278 278 279 279 279 280 280 280 281 282 282 283 283 283 284 284 285 285 285 285 285 286 286 286 286 286 285 285 285 285 285 284 284 284 284 284 285 285 285 286 287 290 291 291 289 287 287 287 287 287 287 286 286 286 286 286 286 286 286 286 285 284 284 284 284 285 285 285 285 285 284 284 284 284
279 279 279 279 279 279 278 277 276 276 276 276 275 276 276 276 276 276 277 278 279 280 281 282 282 283 283 284 284 284 285 285 285 285 286 286 286 285 284 284 285 285 284 284 284 284 284 284 285 285 285 286 287 290 291 290 288 287 287 287 287 286 286 286 286 286 285 286 285 285 285 284 284 283 283 283 283 284 284 284 284 283 283 283 283
278 278 278 278 278 278 277 276 275 274 274 273 273 273 274 274 273 273 273 274 274 276 278 279 280 281 281 282 283 284 284 284 284 285 285 286 285 285 284 284 284 284 284 284 284 284 284 284 284 284 284 285 286 289 290 289 288 287 287 286 286 286 286 285 285 285 284 284 284 284 284 283 283 282 282 282 282 283 283 283 283 282 282 283 283
277 278 278 277 277 277 276 276 275 274 273 273 272 272 272 272 272 272 272 272 272 272 273 274 275 277 278 279 281 283 283 284 283 284 284 285 285 285 284 284 284 284 284 284 284 284 284 284 284 284 284 284 285 288 289 289 288 287 286 286 286 286 285 285 284 284 284 283 283 283 283 283 282 282 282 282 282 282 282 282 282 282 282 282 282
276 277 277 276 276 276 275 275 275 274 273 272 271 270 270 270 270 270 270 270 270 270 271 271 272 273 274 275 277 279 281 282 282 282 283 283 284 284 284 284 284 284 283 283 284 284 284 284 284 284 284 284 285 287 288 288 288 287 286 286 285 285 285 284 284 284 283 283 283 283 282 282 282 282 282 282 282 282 282 282 282 281 281 281 282
275 275 275 275 274 273 273 273 272 271 270 270 269 268 268 268 268 268 268 269 269 269 269 270 270 271 271 272 274 276 277 278 279 280 281 282 282 283 283 283 284 283 283 283 283 284 284 284 284 283 283 284 284 286 288 288 287 287 286 285 285 285 285 284 284 283 283 283 282 282 282 282 281 281 281 281 281 281 281 281 281 281 281 281 282
274 274 273 272 272 271 270 270 269 269 268 267 266 266 266 266 266 267 267 268 268 268 269 269 270 270 271 271 273 274 275 276 277 278 279 280 281 282 282 282 282 282 282 282 283 283 283 283 283 283 283 283 284 286 287 287 286 286 286 285 285 285 285 284 284 283 283 282 282 282 281 281 281 281 281 280 280 280 280 281 281 281 281 282 282
271 271 270 269 268 268 267 266 266 265 265 265 264 264 264 265 265 265 266 266 266 267 267 268 268 269 269 270 271 272 273 274 275 276 277 278 279 280 281 282 282 281 281 282 282 282 282 283 283 282 283 284 285 286 286 286 286 286 286 285 285 284 284 284 283 283 283 282 281 281 281 281 280 280 280 280 280 280 280 280 281 281 281 281 281
270 269 268 267 266 265 264 263 263 263 263 263 263 263 263 263 264 264 264 265 265 265 266 267 267 267 268 269 269 270 271 272 273 274 275 276 277 278 279 280 280 281 281 281 281 281 281 281 282 282 282 284 285 285 285 285 285 285 285 285 284 284 284 284 283 283 282 282 281 281 281 280 280 280 280 280 280 280 280 280 280 280 281 281 281
268 267 265 264 264 263 262 262 262 262 262 262 262 263 263 263 263 264 264 264 265 265 266 266 267 268 268 268 269 269 270 271 272 273 273 274 276 277 278 279 280 281 281 281 281 281 281 281 281 281 282 284 285 285 285 285 285 285 285 285 284 283 283 283 283 282 282 281 281 280 280 280 280 280 280 280 280 280 280 280 280 280 280 280 280
265 264 263 262 262 262 262 262 262 262 262 262 262 262 262 262 263 263 264 264 265 265 266 267 267 268 269 269 270 270 271 271 272 273 274 275 276 277 277 278 280 281 282 282 282 281 281 281 281 281 282 283 284 285 285 284 284 284 284 284 284 283 283 283 283 282 281 281 281 280 280 280 280 280 280 280 280 280 279 279 279 279 279 279 279
263 262 262 262 262 262 261 261 262 262 262 262 262 262 262 262 263 263 263 264 264 265 266 266 267 267 268 269 269 270 271 271 272 273 274 275 276 277 277 278 279 280 281 282 282 282 281 281 281 281 282 283 284 284 284 284 284 284 284 283 283 283 283 283 282 281 281 281 281 280 280 280 279 280 279 279 280 280 279 279 279 279 278 278 277
262 262 262 263 262 261 261 261 261 261 262 262 262 262 262 262 263 263 263 263 264 264 265 265 266 266 267 267 268 268 269 270 271 272 273 274 275 276 277 278 279 280 280 282 282 283 282 282 281 281 282 283 283 283 283 283 283 283 283 283 283 283 282 282 282 281 281 281 281 281 280 280 279 279 279 279 279 279 279 279 279 278 277 276 276
263 263 263 263 262 261 261 261 261 261 261 262 262 262 262 262 263 263 263 263 263 263 264 264 265 265 265 266 266 267 268 269 270 271 272 273 274 275 276 277 279 280 281 281 282 283 283 282 282 282 282 282 283 283 283 283 283 283 283 283 283 282 282 282 281 281 281 281 281 281 280 280 279 279 278 279 279 279 278 278 278 277 276 276 276
264 264 264 264 262 261 261 261 261 261 261 262 262 262 262 262 262 262 263 263 263 263 263 264 264 265 265 266 266 267 268 269 270 271 272 273 273 274 275 276 278 279 280 281 282 282 283 283 282 282 282 282 282 282 282 282 282 282 282 282 282 282 282 281 281 280 280 281 281 281 280 280 279 278 278 278 278 278 278 277 277 277 276 276 276
265 264 265 264 263 262 262 262 262 262 262 262 262 262 262 262 262 262 262 263 263 263 263 264 264 265 265 266 267 268 269 270 271 271 272 273 274 274 275 276 277 278 279 280 282 282 283 283 283 283 283 282 282 282 282 282 282 282 282 282 282 282 281 281 281 280 280 280 280 280 280 279 278 278 278 278 278 278 277 277 276 276 276 276 276
265 265 265 265 264 263 263 263 262 263 262 262 262 262 262 262 262 262 263 263 263 263 263 264 264 265 265 266 267 267 268 269 270 271 272 274 275 276 275 275 276 277 279 280 281 282 283 283 283 283 283 283 282 282 282 282 282 281 282 282 282 282 281 281 280 280 280 280 280 279 279 279 278 278 278 278 277 277 276 276 276 276 276 276 276
265 265 265 264 263 263 262 262 263 263 263 263 263 263 263 263 263 263 263 263 263 263 264 264 265 265 265 266 267 267 268 269 270 271 272 274 276 277 277 276 276 277 279 280 281 282 283 283 283 283 283 283 283 282 282 282 281 281 281 281 281 281 280 280 280 279 279 279 279 279 279 279 278 278 277 277 277 276 276 275 275 275 275 275 275
266 266 266 265 264 263 263 263 263 263 264 264 264 264 263 263 263 263 263 264 264 264 264 264 265 265 266 266 267 267 268 269 271 272 273 274 276 277 278 278 278 279 280 280 282 283 283 283 283 283 283 283 283 282 282 282 281 281 281 281 281 280 280 279 279 279 279 279 279 279 279 279 278 277 277 277 276 276 275 275 275 275 275 275 275
267 267 267 266 266 265 264 264 264 264 264 264 264 264 264 265 265 265 265 264 264 265 265 265 266 267 267 268 268 268 268 269 271 272 273 274 276 277 278 278 279 280 281 281 282 283 283 283 283 283 283 283 282 282 282 282 281 281 281 281 281 280 279 279 279 279 279 279 279 279 279 278 277 277 276 276 275 275 275 275 275 275 275 274 274
267 267 268 267 266 265 265 265 265 265 265 265 265 265 265 266 266 266 266 266 266 266 266 267 267 268 269 269 269 269 269 270 271 273 274 275 276 277 278 278 279 280 281 282 283 283 283 283 283 283 282 282 282 282 282 281 281 281 281 280 280 280 279 279 278 278 279 278 278 279 278 277 277 276 276 275 275 275 275 275 274 274 274 273 273
268 268 268 267 266 265 264 264 265 265 265 265 265 266 266 267 267 267 267 267 267 267 267 268 269 269 270 270 271 271 271 272 273 274 275 275 276 277 278 278 279 279 281 282 283 283 283 283 282 282 282 282 282 281 281 281 281 281 281 280 280 279 279 278 278 277 278 278 278 278 278 277 276 276 276 275 275 274 274 274 274 273 273 273 273
268 268 267 267 267 266 265 265 265 265 265 265 266 266 266 267 267 267 267 268 268 268 268 269 269 270 270 271 271 271 272 273 274 274 275 275 276 277 278 278 279 279 281 282 282 283 283 282 282 282 282 281 281 281 281 281 281 281 280 280 279 279 278 278 277 277 277 277 277 277 277 277 276 276 275 275 274 274 274 273 273 273 273 273 273
269 268 268 268 268 267 266 266 265 265 266 266 267 267 267 267 267 267 267 268 268 268 268 269 269 269 270 270 271 271 272 273 274 274 275 276 277 277 278 278 279 279 280 281 282 282 282 282 281 281 281 281 281 281 280 280 280 280 281 280 280 279 278 278 277 277 277 277 277 277 277 276 276 275 275 274 274 274 274 273 273 273 273 272 272
269 268 268 268 268 268 267 267 267 267 267 267 268 268 268 268 268 268 268 268 268 268 268 269 269 269 270 270 271 272 273 273 274 274 275 276 277 277 278 278 279 279 280 280 281 281 281 280 280 280 280 280 280 279 279 279 280 280 280 280 279 279 279 278 278 277 277 277 277 277 276 276 275 275 275 274 274 274 273 273 273 273 272 272 272
269 269 269 269 268 268 268 268 268 268 268 268 268 269 269 269 269 269 269 269 269 269 269 270 270 270 271 271 272 273 273 273 274 274 275 276 276 277 277 278 278 278 279 279 280 280 280 280 280 280 279 279 279 278 278 279 279 279 278 278 278 278 278 277 277 276 276 276 277 277 276 276 275 275 274 274 274 273 273 272 272 272 272 272 272
270 270 269 269 269 268 268 269 269 269 269 269 269 269 270 270 270 270 270 270 270 270 270 270 270 271 272 272 273 273 274 274 274 274 274 275 276 276 277 277 277 278 278 279 279 279 279 279 279 279 278 278 278 278 278 278 278 278 277 276 276 276 276 276 276 275 276 276 276 276 276 275 275 274 274 273 273 273 272 272 272 272 271 271 271
270 270 270 269 269 269 269 269 270 270 270 270 270 270 270 270 270 270 270 270 270 270 270 270 271 271 272 273 273 273 274 274 274 274 274 275 275 276 276 276 276 277 277 277 278 278 278 277 277 277 277 277 277 277 277 277 277 276 276 275 275 275 275 275 275 275 275 275 275 275 275 274 274 274 273 273 273 272 272 272 271 271 271 271 271
270 270 270 270 270 269 270 270 270 270 271 271 271 271 271 271 271 271 271 271 271 271 271 271 272 272 272 273 273 273 274 274 274 274 274 275 275 275 275 275 276 276 276 276 276 276 276 276 276 276 276 276 276 276 276 276 275 275 274 274 274 274 274 274 274 274 274 273 273 273 273 273 273 273 273 272 272 272 271 271 271 271 270 270 270
270 270 270 270 270 270 270 270 270 270 271 271 271 271 271 271 271 272 272 272 272 272 272 272 272 272 273 273 273 273 274 274 274 274 274 274 275 275 275 275 275 275 276 276 276 276 275 275 275 275 275 275 275 275 275 274 274 273 273 273 273 273 273 273 273 273 273 273 273 273 273 273 273 272 272 272 271 271 271 270 270 270 270 269 269
270 270 270 270 270 270 270 270 270 270 271 271 271 271 271 271 272 272 272 272 272 272 272 272 272 272 273 273 273 273 273 273 274 274 274 274 274 274 274 275 275 275 275 275 275 275 274 274 274 274 274 274 274 274 273 273 273 273 273 273 273 273 273 273 273 273 273 273 273 273 272 272 272 272 271 271 271 270 270 270 269 269 269 269 268
Wind_Speed
19 18 18 17 17 18 18 19 20 20 20 20 20 20 20 20 20 21 20 20 19 19 18 19 20 22 23 24 24 24 24 23 23 24 25 26 27 29 29 31 33 36 37 41 44 47 50 52 53 54 53 54 55 55 56 55 55 54 54 52 51 49 45 43 40 36 32 31 31 32 30 30 30 29 29 29 28 28 30 30 31 33 32 31 30
18 18 17 16 16 16 16 16 17 17 18 18 19 20 20 21 21 21 21 20 19 19 18 18 18 20 22 23 25 26 26 25 25 25 26 26 27 28 29 31 33 34 35 38 41 43 45 48 51 52 53 54 55 55 56 56 55 55 55 54 53 52 49 46 43 39 37 36 35 35 34 32 32 31 31 30 29 29 30 31 32 33 33 32 31
19 18 17 16 15 14 14 13 13 14 16 17 18 19 20 20 21 22 22 22 21 20 19 18 18 18 19 20 23 25 26 26 26 26 27 28 28 28 29 30 32 33 35 37 39 40 43 45 47 48 50 52 53 55 55 56 56 56 56 55 55 54 51 49 47 43 41 40 39 39 38 36 35 34 32 31 31 31 32 32 33 34 34 33 32
18 18 18 18 17 17 16 15 14 14 14 15 17 18 19 19 20 21 21 22 22 23 22 22 20 19 18 18 19 21 23 26 26 27 28 28 29 29 30 31 32 33 35 36 37 39 42 44 44 44 46 49 51 53 54 55 55 56 56 55 55 55 53 51 50 47 44 43 42 42 41 39 37 36 34 34 34 33 33 34 34 35 34 34 33
19 19 20 20 20 21 21 20 20 19 18 17 16 17 18 19 20 20 21 21 22 22 24 24 24 23 21 20 18 18 18 21 24 27 28 29 29 29 30 31 33 33 34 35 37 39 41 43 43 42 43 47 49 50 52 53 54 54 55 56 55 55 54 53 52 50 48 46 45 44 43 41 39 38 37 36 36 35 34 35 36 36 36 36 35
19 19 20 21 22 22 23 23 23 23 22 21 20 19 19 19 20 20 21 21 21 22 22 23 25 25 24 23 21 19 18 17 18 21 25 28 30 31 31 32 33 33 34 36 37 39 41 42 42 40 41 44 47 48 49 50 51 52 54 55 55 54 54 54 53 52 51 50 49 47 47 45 42 41 41 39 38 37 36 35 36 37 38 38 36
19 20 20 21 21 22 23 23 24 24 24 23 23 22 22 21 21 22 22 22 22 22 22 23 24 25 25 25 24 23 21 19 17 17 19 21 25 29 32 33 34 34 34 36 37 40 42 42 41 41 41 42 44 46 46 47 48 51 53 54 53 53 54 54 54 53 52 52 52 51 49 47 45 44 43 41 39 39 37 37 38 39 39 38 36
21 22 22 23 23 24 24 24 24 24 25 25 25 25 24 23 23 24 24 24 24 24 24 23 23 24 25 26 27 26 25 23 21 20 19 19 20 23 27 30 33 34 35 36 37 39 41 42 41 41 41 42 42 43 44 44 46 49 50 51 52 52 53 53 53 54 54 53 54 53 51 49 48 47 45 44 43 43 41 39 39 38 37 37 36
21 22 24 25 26 27 28 28 28 27 26 26 26 26 26 26 25 25 25 25 25 25 25 25 24 24 24 25 26 27 27 27 25 24 23 22 21 21 23 25 28 31 33 35 37 39 41 42 41 40 40 42 42 42 42 42 44 47 48 49 51 52 53 53 53 54 54 53 54 54 52 52 52 52 51 50 48 46 42 40 39 38 37 37 37
20 21 23 24 26 27 29 30 31 31 30 30 29 28 28 28 27 26 25 25 25 25 25 25 25 25 25 25 25 26 27 27 27 27 26 25 25 24 24 25 26 28 30 33 36 38 39 41 41 39 38 40 41 41 41 41 43 46 47 48 49 51 52 53 53 54 53 53 54 55 54 55 56 56 56 55 51 46 43 42 40 38 38 39 39
21 22 23 25 26 27 29 30 31 31 32 32 33 33 32 32 31 29 28 27 26 26 26 26 26 26 27 27 27 27 27 27 27 27 27 27 27 27 27 27 27 28 30 32 35 36 37 38 39 38 37 39 40 40 40 42 42 44 45 47 49 51 52 53 54 55 54 54 55 56 56 58 59 58 57 56 52 48 45 44 42 40 41 41 40
24 25 25 26 27 28 30 31 32 33 33 33 33 34 34 35 35 35 34 32 30 29 28 28 28 28 28 28 28 28 28 27 27 27 27 27 28 29 30 30 29 29 30 32 34 37 38 38 38 38 38 38 38 38 39 41 42 42 43 44 47 49 51 53 54 54 55 55 56 57 58 59 58 58 59 57 54 50 47 46 44 43 44 42 40
27 28 29 29 30 30 31 32 33 34 35 35 36 36 36 36 36 37 38 38 37 35 34 32 31 30 30 30 31 31 30 28 27 27 28 28 28 29 30 32 32 32 33 33 34 36 38 40 41 40 39 38 37 37 38 40 40 41 40 41 44 48 51 53 53 53 54 55 57 59 61 60 58 59 60 57 55 52 50 49 48 46 45 44 42
31 32 33 34 34 34 34 34 35 36 36 37 38 38 39 38 38 38 39 40 40 40 40 39 37 35 33 33 33 34 33 31 30 29 29 29 29 29 31 32 33 34 35 35 35 36 37 39 41 43 42 41 38 38 38 38 39 40 40 41 43 46 49 52 54 55 55 56 58 60 60 59 58 59 59 57 56 56 53 52 50 48 47 46 43
33 34 35 37 37 38 38 39 40 40 39 40 40 40 41 41 40 41 41 42 42 42 42 42 42 42 40 38 37 37 36 35 33 32 32 31 30 31 32 33 34 35 36 37 37 37 37 38 40 42 43 43 41 39 39 39 39 40 41 42 44 45 47 50 53 54 56 58 59 60 58 57 56 57 56 56 56 55 53 51 49 48 47 46 44
36 37 38 39 40 41 42 44 45 46 45 44 45 45 45 44 44 43 44 45 45 44 44 44 44 44 45 44 44 43 41 38 37 36 35 34 33 33 34 35 36 37 38 38 38 38 38 38 39 41 42 43 42 41 39 38 39 41 42 43 44 45 46 48 49 51 53 55 58 59 59 58 57 57 56 55 54 54 52 50 48 47 46 45 45
40 41 42 43 44 45 46 46 48 50 52 51 50 50 49 49 48 47 47 48 47 47 47 48 47 47 47 47 48 49 48 45 42 40 38 37 36 35 36 37 38 39 40 40 40 39 40 39 38 39 41 42 41 40 39 38 39 41 43 44 45 46 47 48 47 48 50 53 55 57 58 58 58 58 57 56 55 54 53 52 51 49 47 46 45
44 43 44 47 48 47 47 47 48 51 54 55 55 54 53 53 51 50 51 51 51 50 50 50 51 50 50 50 50 50 52 51 49 46 43 40 38 38 38 39 39 40 41 41 41 41 42 42 40 38 39 40 39 38 38 38 39 41 44 45 46 49 50 48 48 48 49 50 53 55 56 57 57 57 57 56 56 56 55 53 52 51 49 48 47
45 44 46 49 48 47 48 49 50 51 53 55 56 56 55 55 54 53 53 55 55 54 54 54 54 54 53 53 53 52 53 53 52 52 50 45 41 39 40 41 41 42 42 42 43 43 43 43 42 40 39 39 38 37 37 38 39 40 42 45 48 51 51 48 47 48 47 48 50 53 54 55 55 55 56 56 56 56 55 52 51 51 50 48 47
45 46 48 49 49 49 50 50 50 51 52 55 56 57 57 57 56 55 55 56 56 56 57 57 57 57 56 55 55 55 55 54 54 54 53 51 47 43 41 42 43 43 43 44 44 44 44 44 44 43 41 38 37 37 37 38 39 40 41 44 49 51 48 45 46 47 46 46 47 49 51 53 54 56 57 58 57 56 54 52 51 50 47 45 44
47 49 51 52 54 54 53 52 51 51 53 53 54 56 57 56 56 57 57 59 59 59 59 59 59 59 58 57 57 56 56 56 55 54 54 54 52 48 45 44 44 44 44 44 44 45 46 46 46 45 44 40 37 35 36 37 38 40 41 44 47 46 44 43 45 46 45 45 45 47 49 50 52 55 58 59 59 58 56 53 51 48 45 43 43
53 54 56 58 60 59 58 56 54 53 53 52 52 54 55 54 53 54 55 58 60 61 62 62 62 62 61 60 59 58 57 57 56 56 55 54 54 52 50 47 45 45 45 45 45 46 47 47 46 45 44 43 39 35 35 35 36 39 41 42 43 42 42 42 44 44 45 45 45 47 48 49 50 53 54 56 57 58 57 54 51 47 44 43 42
58 60 62 63 63 63 62 60 57 55 54 53 52 53 55 54 53 52 53 54 57 59 63 64 64 64 64 63 63 61 60 59 58 58 57 56 55 55 54 52 49 47 46 47 48 47 47 48 47 46 44 43 40 37 36 35 35 37 39 40 40 41 42 42 43 45 46 45 45 48 49 49 50 50 52 54 56 56 55 53 50 47 44 43 43
58 60 62 62 63 63 62 61 61 59 57 55 54 56 57 56 55 55 55 56 57 59 62 64 66 67 68 67 66 65 63 62 61 60 59 59 59 58 57 56 55 51 49 48 49 49 49 48 48 46 44 42 41 39 37 34 34 36 37 37 37 39 41 42 44 45 46 47 47 49 50 49 49 49 52 54 56 55 54 51 48 46 45 44 43
57 59 60 60 61 62 61 62 62 60 58 56 53 55 57 55 54 55 55 55 56 57 60 65 66 67 70 71 69 67 65 63 61 59 58 58 59 60 59 58 57 54 51 50 51 51 50 49 47 46 44 43 41 39 38 36 34 34 35 35 35 37 40 42 44 46 47 49 49 49 48 48 48 50 51 52 53 53 52 50 48 46 44 43 40
55 57 58 59 59 59 59 61 60 58 56 54 52 54 54 50 48 48 45 44 45 47 51 53 51 51 57 64 65 63 62 61 59 58 58 58 58 60 60 59 58 56 53 51 52 52 51 49 48 46 45 44 42 40 40 39 36 34 33 33 34 37 41 42 43 46 48 49 49 47 46 46 47 49 50 51 52 52 52 51 48 46 44 41 38
54 56 57 57 58 57 56 57 57 55 54 52 51 50 45 39 38 38 36 34 35 36 38 38 38 38 42 49 52 54 54 55 55 56 56 57 57 56 54 53 53 53 52 51 52 52 51 49 48 45 43 42 42 40 40 40 37 35 34 34 35 38 42 44 43 44 46 47 47 46 45 46 48 49 49 50 51 51 51 49 47 44 43 40 37
53 54 55 55 55 54 52 51 51 50 49 48 46 44 39 34 34 37 37 36 36 38 38 38 38 39 39 42 45 47 49 51 54 55 54 52 52 50 48 47 48 47 48 49 51 49 46 45 45 42 38 39 41 41 41 41 40 38 36 36 37 39 42 44 43 43 44 44 45 46 46 47 48 49 49 49 50 50 49 47 45 43 41 39 37
51 52 52 52 51 49 47 45 44 45 46 47 45 43 40 37 37 40 41 39 38 40 41 42 42 42 41 42 42 43 46 49 51 51 50 50 50 49 48 48 47 46 46 47 46 43 40 40 42 41 38 38 41 42 42 43 42 41 38 37 37 39 42 44 44 43 43 43 44 46 47 47 47 47 48 48 49 49 48 46 44 42 40 38 37
50 50 49 47 47 45 44 43 43 44 45 45 45 44 41 37 36 38 41 40 38 39 41 43 44 44 44 45 44 43 45 48 46 43 42 42 41 40 41 42 42 40 39 38 37 36 36 38 41 41 40 40 42 43 44 44 44 43 41 39 39 39 41 44 45 44 44 44 44 46 47 46 46 46 47 48 49 48 47 45 44 41 39 38 37
46 46 45 45 44 43 43 43 43 42 42 42 41 41 40 38 36 35 37 38 38 38 39 41 42 42 43 46 46 45 46 47 45 44 43 41 39 38 38 38 38 36 34 31 30 32 34 36 40 43 42 41 43 46 46 45 44 44 42 40 39 40 42 44 44 44 45 45 44 45 46 47 47 47 48 49 49 48 46 44 43 41 40 38 37
43 43 44 44 44 42 41 41 40 39 40 39 38 37 37 39 38 36 35 35 36 37 38 39 40 40 41 43 45 46 47 46 45 44 42 41 41 40 40 40 40 39 36 34 34 35 35 36 39 41 42 43 45 46 45 45 45 44 41 40 39 40 42 43 43 44 45 46 45 45 46 46 47 48 49 49 49 49 47 45 43 42 40 38 37
40 42 43 43 42 40 39 38 38 38 38 38 36 34 34 36 38 38 37 35 35 36 36 37 38 40 40 40 41 44 45 46 45 45 43 41 40 39 39 38 39 38 37 38 39 39 38 38 39 40 42 45 46 44 43 43 43 42 41 40 39 40 41 42 42 43 45 45 45 45 45 46 47 48 49 49 49 48 47 45 44 42 40 38 36
39 41 42 41 40 39 38 37 37 37 37 36 36 35 35 35 37 38 38 38 37 37 37 37 37 36 37 38 37 37 38 38 40 42 43 43 42 40 37 35 35 35 36 39 42 43 42 41 41 41 41 42 43 42 40 41 40 39 39 39 39 39 41 41 41 42 44 45 45 44 45 46 47 48 49 49 48 47 46 45 43 42 40 38 35
39 39 39 38 37 36 36 35 36 37 37 37 37 37 38 37 37 37 37 37 37 38 38 38 36 34 34 35 36 36 36 35 35 35 36 38 39 39 38 37 36 36 36 38 41 45 45 42 41 41 40 39 39 39 38 39 39 38 39 40 40 40 41 41 42 43 44 45 46 46 45 45 46 47 48 48 47 45 45 44 42 41 39 36 33
39 38 38 36 35 35 35 36 36 37 38 39 39 38 39 39 38 37 36 36 36 36 37 38 37 35 34 33 33 33 33 32 32 33 33 33 34 34 37 39 37 34 35 36 38 42 43 40 38 39 40 38 37 36 37 38 39 39 40 40 41 41 41 42 43 44 45 46 47 46 45 44 44 44 45 45 44 44 43 42 40 38 35 33 31
39 38 37 36 35 35 36 37 38 38 38 39 39 38 39 39 38 37 36 35 34 34 35 36 36 35 34 33 31 31 31 31 31 30 28 28 28 28 33 40 39 34 34 36 36 36 39 40 37 36 37 37 35 34 36 37 38 39 40 40 41 42 41 41 42 44 45 47 47 45 43 42 41 41 41 41 42 41 40 38 37 34 32 30 28
38 37 36 34 34 35 36 36 37 37 38 38 38 38 39 39 39 38 37 36 35 34 35 36 35 34 36 36 33 31 30 30 29 26 25 24 22 20 24 32 37 37 36 37 36 34 36 38 37 35 35 34 33 33 35 37 38 39 40 40 40 40 40 40 42 44 45 45 45 43 41 39 38 38 38 39 40 39 38 36 34 32 30 28 26
37 35 33 32 31 32 33 34 36 36 37 37 37 38 38 39 39 39 39 39 39 38 37 37 37 36 36 36 33 29 27 27 26 25 27 27 23 18 18 21 27 31 32 33 33 33 33 35 35 34 32 30 30 32 35 37 38 39 39 39 38 39 40 41 41 43 43 43 42 41 39 37 36 36 37 37 37 36 35 33 31 30 28 26 25
35 34 31 29 29 30 31 33 34 35 36 37 37 37 38 38 38 39 38 38 39 38 37 37 37 36 33 31 29 26 26 28 28 28 29 30 26 21 19 19 20 22 23 24 27 29 30 32 33 30 28 27 29 32 35 37 39 38 37 37 38 40 40 40 41 42 42 42 41 40 37 36 36 36 36 35 34 33 32 30 28 27 25 23 22
33 32 30 28 28 29 31 32 33 34 36 37 37 37 37 37 37 38 38 37 37 36 36 36 35 33 30 28 26 24 25 28 29 30 30 30 28 25 21 18 18 19 19 21 24 26 27 29 28 25 24 25 28 32 35 36 36 35 34 36 38 39 39 39 40 41 41 41 40 38 36 35 36 35 34 33 32 30 29 27 26 24 23 21 20
31 31 30 28 28 29 30 31 32 32 33 35 36 36 36 35 36 36 36 36 34 34 33 33 32 31 28 26 24 22 22 24 26 27 27 25 24 22 19 17 16 17 16 18 21 23 24 25 22 20 21 24 27 30 33 34 33 33 34 36 37 37 37 37 37 38 40 40 38 36 35 35 33 32 32 32 32 30 28 26 24 23 21 20 19
30 29 28 27 26 27 27 29 30 30 30 31 32 32 32 33 34 34 33 33 32 31 31 31 31 30 28 26 24 23 23 23 23 24 23 20 18 17 17 16 14 14 13 13 14 17 20 18 16 16 20 22 23 25 28 30 31 31 32 33 34 34 35 35 35 36 38 38 37 35 34 33 31 31 31 31 30 29 27 25 24 22 21 19 18
28 27 26 25 25 25 25 26 27 27 27 28 28 28 28 28 29 30 30 30 30 30 30 31 31 31 30 28 26 25 24 23 21 20 18 15 14 13 14 14 12 9 9 9 11 13 13 11 11 14 19 21 23 25 27 28 29 28 28 28 30 31 32 32 32 33 35 36 36 34 32 30 30 30 30 29 27 27 26 24 23 21 20 18 17
26 25 24 24 24 24 25 25 25 26 26 27 27 27 26 25 25 24 25 25 25 26 26 26 26 26 25 25 24 23 21 20 19 17 14 12 11 11 10 10 8 7 7 8 8 8 8 7 9 13 18 21 25 26 27 27 27 26 24 23 23 24 26 27 27 29 32 35 34 32 30 29 30 30 29 28 26 25 24 22 21 20 19 17 15
26 24 23 23 24 24 25 25 25 26 26 26 26 26 26 26 25 24 23 22 21 20 20 20 20 20 20 20 20 19 18 17 16 14 12 11 10 9 8 7 6 5 6 6 6 6 6 7 10 14 17 21 24 26 27 27 26 24 22 20 19 20 21 22 24 28 31 32 31 29 29 30 30 29 27 26 24 23 21 20 19 18 17 15 14
26 24 23 23 23 24 25 25 25 26 26 26 26 26 26 26 26 26 25 24 23 22 20 20 20 20 20 20 20 19 17 16 14 12 11 9 8 7 6 5 4 4 4 4 5 5 6 8 10 13 16 19 22 23 24 23 20 18 16 14 14 15 16 19 23 27 29 29 28 28 28 29 28 27 25 23 22 21 20 19 18 16 15 14 12
26 24 23 23 23 24 24 25 25 26 26 26 26 26 27 27 27 27 26 25 24 23 22 21 21 21 21 21 20 19 18 16 15 13 12 10 9 7 6 5 4 4 3 3 3 3 3 5 7 9 12 15 16 17 16 16 15 15 14 14 12 13 16 21 24 26 26 25 25 25 25 25 24 23 22 21 20 19 18 17 16 15 13 13 11
26 24 23 23 24 24 25 25 26 26 26 27 27 27 27 27 27 27 27 26 25 24 23 22 21 20 20 20 20 19 18 16 15 14 12 11 10 9 9 8 7 6 5 5 5 5 5 5 4 5 8 11 13 15 16 18 19 20 20 20 20 20 22 24 25 24 24 24 23 23 22 21 21 20 20 19 18 17 16 15 14 13 12 12 11
25 24 23 23 24 25 25 26 26 26 27 27 28 28 28 28 28 28 28 27 27 25 24 23 22 21 21 20 20 20 19 18 17 16 16 16 15 15 15 14 14 14 15 15 15 15 14 14 13 14 15 17 18 20 21 22 22 23 23 23 23 23 23 23 23 23 23 22 22 21 20 20 19 19 18 17 16 15 15 14 13 12 11 11 10
24 23 23 23 23 24 25 25 26 27 27 27 28 28 29 29 29 29 29 29 28 28 26 25 24 23 23 23 23 22 22 22 21 21 20 20 20 19 19 20 20 20 20 21 20 20 19 20 20 20 20 21 21 22 22 22 22 22 22 23 23 22 22 22 22 21 20 20 19 19 18 18 17 16 16 15 15 14 13 13 12 11 10 10 11
Wind_Direction
2 0 358 356 352 349 347 346 346 346 346 346 345 345 345 346 347 347 348 347 343 339 333 325 318 311 305 300 294 288 283 279 277 277 275 275 274 273 272 270 267 265 263 260 258 256 255 254 254 253 252 252 251 250 249 249 248 247 246 245 243 242 239 238 239 242 245 245 245 247 247 245 246 245 243 242 241 239 236 234 232 231 232 235 236
357 357 355 352 349 346 341 338 337 337 339 339 338 339 339 340 341 340 341 342 342 342 340 334 327 319 312 306 301 297 292 286 282 279 277 276 275 274 274 272 269 268 266 263 261 260 258 257 256 255 253 253 252 251 251 251 249 248 247 245 244 243 240 239 238 239 243 245 244 246 246 245 245 244 242 241 240 240 238 235 233 232 233 236 237
353 354 354 352 351 347 343 338 333 330 329 331 333 335 337 337 336 335 335 335 335 337 338 337 334 327 320 313 306 301 298 294 289 284 281 278 276 275 274 273 271 271 269 267 265 263 262 260 258 257 256 255 254 253 252 251 250 249 249 247 246 245 242 241 240 238 241 244 245 245 246 246 246 245 243 241 239 238 238 237 236 235 236 237 238
347 347 348 350 349 348 347 345 342 339 333 331 331 331 333 333 332 331 330 330 330 332 333 333 333 330 327 322 314 305 299 296 293 289 285 282 279 277 276 273 272 271 270 270 269 267 265 262 261 260 258 257 256 255 253 251 250 249 249 248 247 246 244 242 242 240 240 243 245 246 247 247 247 246 243 240 238 237 237 237 237 237 238 238 239
340 339 339 340 341 342 344 344 345 345 344 341 337 333 331 330 329 327 325 324 324 325 326 328 329 329 328 326 323 317 307 298 293 289 287 285 282 279 275 273 272 271 271 271 270 269 267 264 264 263 261 259 258 256 254 252 250 249 249 249 247 246 244 243 243 242 240 242 244 246 246 245 245 245 244 241 239 238 236 236 237 237 238 238 237
337 338 337 335 336 336 337 338 340 341 342 342 341 338 335 331 329 328 326 325 323 321 320 320 322 323 324 323 323 322 318 309 299 291 287 285 284 281 278 275 272 270 269 270 270 269 267 265 265 264 263 261 260 259 257 254 252 250 250 250 248 245 244 243 243 242 240 241 243 245 245 244 243 244 245 242 240 240 238 236 236 236 237 237 235
335 336 336 335 334 332 331 333 334 335 337 337 337 337 336 333 331 329 327 327 325 324 321 318 317 317 317 318 318 319 320 319 316 307 296 287 282 279 278 277 275 272 270 268 269 268 268 266 265 264 262 261 262 262 260 257 255 253 253 251 248 245 243 243 242 241 240 239 241 243 244 245 244 244 244 243 240 238 237 235 235 235 236 237 236
328 330 332 333 331 330 329 328 329 330 331 332 332 332 332 331 330 328 327 326 325 324 322 320 317 315 315 315 316 317 318 319 322 322 317 308 294 282 276 273 273 273 272 270 269 268 268 267 265 264 262 260 261 261 261 260 258 256 255 252 248 245 243 242 241 240 239 238 239 241 242 242 242 242 241 239 236 236 236 236 236 237 237 238 237
319 321 324 326 326 326 326 326 325 325 325 326 327 327 327 327 326 326 325 324 322 321 320 319 317 314 313 312 314 316 317 318 321 323 324 322 316 304 290 279 272 270 268 268 268 268 268 268 266 263 262 261 262 262 261 260 258 258 256 252 248 246 244 242 239 238 237 235 235 238 238 239 240 239 239 239 238 239 239 238 238 238 238 237 236
311 313 315 317 318 318 319 320 320 321 321 321 321 322 322 322 321 321 321 320 319 317 315 315 315 314 313 311 311 311 313 316 319 321 322 322 320 316 308 297 286 277 271 266 264 264 265 267 267 265 262 261 261 262 263 262 258 257 256 253 249 248 245 242 239 237 236 233 233 234 235 237 239 240 242 243 242 240 239 239 239 238 237 235 235
309 309 310 310 310 311 312 312 312 313 315 316 316 316 317 316 315 315 314 314 314 313 312 311 311 311 311 311 311 310 310 313 316 319 319 318 317 315 313 308 300 291 282 275 270 268 266 266 266 265 263 261 259 260 262 262 261 258 256 253 251 249 247 244 241 238 235 234 234 234 234 237 239 240 242 243 241 239 239 240 239 237 236 236 236
307 306 306 306 306 306 307 306 306 307 308 308 308 309 310 311 311 310 309 308 308 307 307 307 307 307 308 308 309 309 309 310 312 315 316 315 315 313 310 309 306 300 294 286 280 276 274 272 269 266 262 260 260 260 259 259 260 260 259 255 252 250 248 246 243 240 237 236 235 234 235 237 238 239 241 242 242 241 240 240 239 237 238 239 239
309 308 307 306 305 305 304 304 303 302 303 303 303 303 304 304 305 305 305 304 304 304 303 302 302 302 303 303 304 305 306 307 310 311 311 311 312 310 308 306 304 303 301 297 291 284 279 276 275 272 268 264 262 261 259 258 258 259 259 258 254 251 248 246 245 243 241 239 238 238 239 239 238 240 243 244 245 243 240 239 238 237 238 240 239
310 310 310 309 308 307 305 303 301 300 299 299 299 299 299 300 300 300 300 300 300 300 301 300 299 298 298 298 299 299 300 302 305 307 307 308 307 306 305 303 302 301 300 300 298 294 288 282 277 276 273 270 266 262 259 260 261 260 258 256 254 253 249 246 244 242 240 239 239 240 242 241 242 245 247 247 247 246 243 242 242 240 239 239 238
306 307 308 309 309 308 306 304 302 300 299 299 299 297 297 296 296 296 296 295 295 295 295 296 296 296 296 295 294 294 294 297 300 301 303 305 306 305 303 301 301 300 299 299 298 298 297 292 286 281 276 272 270 266 261 261 263 263 261 258 256 254 252 249 246 243 241 239 240 241 241 242 244 247 247 247 247 247 246 245 244 240 237 234 231
304 306 308 309 309 308 308 307 305 302 301 300 300 299 298 297 296 294 293 291 290 291 290 290 290 290 291 292 293 292 291 291 293 295 298 301 304 306 304 301 299 298 297 297 297 297 297 296 294 291 284 276 272 268 265 264 263 263 263 262 259 257 254 252 250 248 245 244 243 243 242 242 243 244 245 246 246 245 244 241 238 234 231 228 228
307 308 309 309 308 307 307 306 304 303 302 301 300 299 299 297 295 294 292 289 288 287 287 287 287 286 286 287 288 289 289 289 289 290 293 296 300 303 303 302 300 297 296 296 296 296 296 295 295 295 292 286 278 271 266 265 263 263 263 262 261 259 256 254 252 250 248 246 245 245 244 242 242 242 243 244 244 244 241 238 235 232 228 226 227
309 309 308 307 306 305 304 303 301 301 300 300 299 298 297 295 294 292 290 288 287 286 285 284 284 284 284 284 284 285 286 287 288 288 289 290 294 297 299 300 299 298 296 295 295 295 295 295 293 292 292 292 287 277 268 264 261 260 260 258 257 258 257 254 251 249 247 246 244 244 243 242 241 241 241 241 241 241 240 239 238 234 230 228 228
308 307 306 305 303 302 302 301 299 298 297 297 297 296 294 293 291 289 288 287 286 285 284 283 282 281 281 281 281 282 282 283 285 286 287 287 288 289 292 295 296 296 296 295 294 294 293 293 292 290 289 292 291 283 273 265 261 259 257 255 254 255 256 254 251 248 247 246 244 242 240 239 239 238 238 239 239 239 240 240 239 237 233 230 228
306 305 303 302 300 299 299 298 296 294 293 294 294 293 292 290 289 287 285 284 284 283 282 282 281 280 279 279 279 279 279 280 281 283 284 285 285 285 286 289 291 293 294 294 294 293 291 290 290 290 288 288 289 287 279 268 261 260 257 254 253 254 254 252 251 251 249 248 247 245 242 239 237 236 236 236 236 237 237 237 237 236 234 231 228
306 304 302 300 299 299 298 296 294 292 291 291 291 290 289 288 287 286 284 283 282 281 280 280 279 279 278 277 277 276 276 277 278 279 280 281 282 283 283 284 287 289 291 291 291 290 290 289 289 290 289 287 286 287 282 272 264 261 258 256 256 257 255 253 254 253 250 248 247 245 243 238 234 233 233 233 234 234 234 233 234 234 232 230 228
305 303 301 300 299 298 297 296 294 293 292 291 290 289 288 287 286 285 283 283 281 280 279 278 277 277 277 276 275 275 274 274 275 275 276 277 278 280 280 281 283 286 288 288 287 287 288 288 289 289 288 286 285 284 282 275 266 260 259 259 260 258 255 254 253 250 247 245 241 238 236 232 229 227 227 227 229 230 229 229 230 229 229 229 229
303 301 300 299 298 298 297 296 294 293 292 290 289 287 287 286 285 284 283 283 283 283 281 280 278 277 276 275 274 273 273 273 273 273 273 274 274 276 278 280 281 282 283 284 285 286 286 286 288 288 286 284 283 281 278 274 267 261 260 260 260 259 255 251 247 244 242 239 234 231 230 227 224 223 222 222 224 225 226 226 227 227 227 227 226
302 301 300 299 298 298 297 296 295 294 292 291 289 287 286 286 285 283 282 282 283 283 282 282 282 282 280 278 275 273 271 272 273 273 273 273 274 275 276 277 279 280 281 282 283 285 285 285 286 286 284 281 279 277 274 271 266 262 261 259 255 253 251 247 242 239 235 232 230 229 227 224 221 220 220 221 223 224 225 225 226 226 226 224 223
303 301 300 299 298 298 297 296 295 294 294 293 290 288 289 287 285 283 283 282 281 280 282 284 285 285 285 283 279 275 273 273 273 273 273 273 274 275 275 275 277 279 279 279 281 283 284 284 284 282 280 278 275 272 270 268 263 259 260 257 249 243 243 242 238 234 231 229 229 228 225 223 221 220 222 224 224 224 225 224 223 222 221 220 220
303 301 301 300 299 298 298 297 297 297 297 296 295 295 294 291 286 284 282 280 278 278 280 282 279 278 281 283 282 279 276 275 273 272 271 271 271 273 275 275 275 277 278 278 279 280 281 281 279 276 275 275 272 267 265 264 261 256 254 250 241 236 237 236 233 230 229 228 227 225 224 222 219 219 222 224 223 223 223 222 220 219 218 217 217
305 304 303 302 301 302 302 302 302 303 303 303 303 301 297 289 283 281 277 275 276 275 274 273 269 266 272 277 279 278 276 275 273 271 271 271 271 271 274 275 275 275 274 275 276 277 278 278 275 272 271 271 269 265 263 262 259 254 249 243 236 234 234 234 232 231 229 227 224 223 223 221 218 218 220 220 219 220 221 221 220 218 217 217 218
307 305 305 305 305 306 307 307 307 307 306 306 303 300 294 285 279 278 277 277 277 276 274 272 270 269 271 273 275 275 273 272 272 271 269 269 269 269 270 274 276 274 272 272 273 274 275 274 271 268 265 261 260 259 258 256 253 251 247 242 237 233 232 232 232 230 228 225 220 219 220 218 217 218 218 216 216 218 219 219 219 218 218 218 217
308 307 307 307 308 308 307 306 306 305 304 304 301 297 294 288 282 280 282 281 277 276 275 274 273 274 274 273 273 273 271 272 273 273 272 270 270 268 267 268 273 274 273 273 273 271 270 267 265 263 259 252 250 250 249 248 247 246 244 241 237 233 230 230 228 225 223 219 215 215 216 215 213 215 215 213 214 216 217 217 217 218 218 217 217
309 308 308 308 307 307 305 303 303 303 302 302 301 298 295 290 285 282 283 283 279 276 276 276 277 277 276 274 273 271 271 274 275 274 273 271 269 267 263 262 265 268 271 273 270 264 260 259 259 258 254 248 245 245 245 244 243 241 239 237 234 231 229 230 227 222 218 216 213 214 215 214 212 213 213 211 213 215 215 216 217 217 217 216 215
309 308 308 306 305 304 302 302 303 302 300 300 298 296 295 293 290 285 284 284 282 280 279 279 279 278 277 276 276 273 272 273 273 272 270 269 267 265 263 260 259 258 260 262 259 254 252 251 252 254 252 248 245 245 244 242 240 237 235 233 231 229 228 229 226 219 214 214 214 215 216 215 214 214 212 212 214 215 214 214 215 215 216 216 214
309 309 308 306 305 304 302 302 302 300 300 299 296 293 293 294 293 291 289 288 286 285 284 283 282 282 280 279 279 277 275 274 274 273 272 270 268 266 264 261 258 257 255 253 250 248 247 246 248 249 248 246 244 243 242 240 238 236 232 229 228 228 227 227 225 218 213 214 215 216 216 216 216 215 213 213 215 215 213 212 212 213 214 213 212
311 311 310 309 308 306 303 302 300 299 298 298 295 293 292 292 293 295 294 293 291 289 287 285 284 284 284 283 281 279 276 274 273 273 272 271 269 267 266 263 260 256 253 249 247 245 243 243 245 246 246 245 243 241 239 237 235 233 230 228 227 226 225 224 222 217 213 215 217 218 218 217 216 214 212 213 215 214 212 211 212 211 210 210 209
315 313 312 311 310 307 304 302 300 299 298 296 295 293 292 291 292 294 295 295 295 294 292 292 290 288 288 288 286 285 283 281 277 273 270 269 268 268 267 267 264 258 252 247 244 242 241 241 242 245 246 246 244 240 237 234 232 230 228 227 226 223 221 220 218 214 213 215 218 218 218 218 216 214 212 212 213 213 212 211 211 209 208 208 208
318 316 315 315 312 309 307 305 302 301 300 299 298 297 296 294 293 292 293 293 293 294 294 295 295 293 291 290 289 288 287 286 285 281 277 272 269 266 264 263 264 262 256 250 244 241 239 238 240 244 246 246 243 240 236 232 230 228 226 224 223 220 218 217 216 213 213 215 217 217 217 217 216 216 215 213 212 211 210 210 210 209 208 207 207
321 319 319 319 317 315 313 311 309 307 306 305 303 301 300 299 297 295 293 292 291 291 293 295 297 298 295 292 291 291 290 290 290 289 286 281 275 266 256 253 257 260 260 256 250 243 238 236 240 244 245 245 243 241 236 232 229 226 225 225 223 220 218 216 215 213 213 214 216 216 216 216 215 214 213 212 211 211 210 208 208 207 206 207 207
323 322 322 323 322 321 318 316 315 314 311 309 306 303 301 301 299 297 295 292 290 289 291 294 298 299 297 296 295 294 295 296 294 292 294 292 283 267 252 246 247 253 257 256 254 247 239 235 239 244 245 243 242 240 236 232 228 226 225 224 223 222 220 217 216 214 213 213 214 214 214 214 214 213 212 210 209 208 207 206 205 204 204 205 205
325 323 323 324 322 319 317 315 315 315 313 311 309 307 305 304 302 300 298 297 295 293 293 295 296 295 297 301 304 303 303 302 300 303 312 314 298 274 255 246 244 249 254 254 252 249 241 235 237 243 245 244 242 239 234 229 226 223 221 220 221 220 218 215 213 212 212 212 212 212 213 213 213 211 209 207 206 205 204 203 202 201 201 202 203
326 324 325 326 325 323 320 318 317 317 316 315 315 313 310 308 306 305 303 303 302 301 300 300 300 300 302 307 312 314 314 313 312 314 322 325 315 293 276 263 255 256 259 254 248 244 238 233 235 241 244 243 240 236 232 228 225 221 219 220 220 218 215 212 210 210 211 212 211 212 214 213 209 205 204 204 204 203 201 199 199 200 201 202 203
327 326 327 330 332 331 328 325 323 321 320 320 319 318 316 315 314 312 310 308 306 306 306 306 307 310 313 315 317 316 311 310 314 316 319 324 321 308 296 287 276 272 270 259 247 241 237 233 235 239 242 241 236 232 229 227 223 220 220 223 223 220 217 215 214 213 214 213 212 212 211 207 202 199 199 199 200 199 198 197 197 199 201 203 204
330 329 332 336 338 336 333 330 328 326 324 323 323 322 322 323 323 320 317 314 311 311 311 312 314 318 323 324 323 315 302 300 306 311 311 313 314 310 303 293 289 289 278 253 239 236 235 231 232 237 240 236 230 225 224 223 222 221 223 225 224 221 218 217 215 215 214 213 212 210 205 200 197 196 195 194 193 193 194 195 196 197 199 201 204
335 334 336 339 341 338 334 331 330 329 326 324 324 325 326 327 328 325 322 319 318 317 317 318 322 325 329 332 335 328 314 306 306 306 306 307 312 314 310 301 302 305 287 251 234 233 232 229 232 240 240 234 228 224 223 222 222 223 224 225 223 221 219 217 215 214 213 212 210 204 198 194 194 195 194 191 189 188 189 191 193 195 197 201 205
338 337 337 340 343 342 338 336 334 332 329 326 326 327 328 328 329 328 326 325 325 324 323 325 329 331 334 338 341 333 321 314 310 307 307 310 315 318 315 311 313 312 297 273 257 246 237 233 240 246 242 236 234 231 228 225 223 223 224 225 224 222 220 218 214 211 210 207 203 196 192 192 192 191 191 189 187 186 187 188 191 195 197 201 206
342 340 340 343 346 348 346 345 342 340 340 339 338 337 334 331 330 331 331 330 330 330 329 330 332 332 332 333 331 323 316 313 314 315 318 320 319 315 313 314 315 304 284 273 262 247 238 237 242 240 233 229 228 227 226 224 223 223 225 226 225 224 222 220 216 213 209 203 195 191 190 191 190 189 189 188 186 186 187 188 190 194 197 202 206
345 344 344 348 352 353 354 354 353 352 353 354 353 351 349 346 342 340 338 335 333 331 329 327 326 324 322 321 320 319 318 318 319 322 327 329 324 316 311 312 310 287 254 238 228 223 222 225 231 231 228 224 221 219 219 219 219 221 225 228 228 226 224 221 219 214 207 200 194 191 190 191 189 188 187 186 185 187 188 189 191 195 198 203 207
349 348 350 354 357 359 359 0 1 2 3 3 1 360 359 358 355 353 350 346 343 340 337 336 334 332 330 330 331 331 329 325 324 328 333 334 329 321 314 311 302 273 241 220 208 207 213 220 226 228 226 221 216 213 213 214 213 214 218 223 225 225 222 218 213 205 199 195 194 193 191 189 187 185 185 184 184 186 188 191 195 197 201 206 210
354 353 355 359 2 4 5 6 7 7 8 9 8 7 7 6 4 2 360 358 356 355 354 354 353 352 352 352 351 349 346 342 338 338 340 340 337 333 329 322 304 272 243 224 221 225 226 225 225 225 223 219 214 211 210 208 205 205 206 207 211 216 212 203 196 191 188 189 190 190 188 185 182 181 181 181 183 187 190 193 198 201 205 211 216
0 359 1 4 7 8 10 12 13 13 13 14 14 14 14 14 12 11 9 7 5 4 4 4 5 6 7 7 5 5 4 0 355 351 349 349 352 353 350 343 329 309 291 271 260 254 239 226 224 222 219 214 207 199 193 185 178 173 166 160 163 173 177 178 178 178 178 180 181 181 180 179 177 177 179 181 185 190 193 196 202 206 209 215 222
6 6 7 10 12 13 15 17 17 18 19 20 20 20 20 19 19 19 17 16 14 13 12 12 13 15 18 20 20 19 18 15 14 14 16 18 23 29 32 34 36 39 51 69 79 82 89 104 131 159 171 170 165 161 158 153 149 145 140 138 142 150 158 164 167 168 168 168 169 169 171 173 174 177 181 184 187 192 196 200 206 211 214 221 229
11 12 14 15 16 18 19 20 22 22 24 24 25 26 25 25 26 27 26 26 26 25 23 24 25 27 30 33 35 36 38 39 41 45 49 53 58 64 67 70 75 81 86 90 93 95 99 105 114 124 133 138 139 140 140 139 136 136 136 137 141 147 152 156 158 160 161 163 165 166 170 173 176 180 183 186 189 194 199 204 209 215 221 229 238
12 15 17 19 20 20 21 22 24 24 26 28 29 31 32 32 33 34 35 35 36 35 35 36 38 40 42 45 48 50 52 55 57 59 62 66 70 75 80 84 87 91 94 96 99 101 105 110 114 118 122 124 126 127 128 128 129 132 135 137 141 145 148 150 153 156 159 163 166 169 172 176 179 182 185 188 192 196 202 207 214 221 230 239 247